Regional Weather Roundup
Issued by NWS

Home | Current Version | Previous Version | Graphics & Text | Print | Product List | Glossary On
Versions: 1 2 3 4 5 6 7 8 9 10 11 12 13 14 15 16 17 18 19 20 21 22 23 24 25 26 27 28 29 30 31 32 33 34 35 36 37 38 39 40 41 42 43 44 45 46 47 48 49 50
000
ASUS45 KCYS 020410
RWRWY

WYOMING REGIONAL WEATHER ROUNDUP
NATIONAL WEATHER SERVICE CHEYENNE WY
1000 PM MDT MON SEP 01 2014

NOTE:  "FAIR" INDICATES FEW OR NO CLOUDS BELOW 12,000 FEET
WITH NO SIGNIFICANT WEATHER AND/OR OBSTRUCTIONS TO VISIBILITY.

WYZ001-020500-
YELLOWSTONE NATIONAL PARK

CITY           SKY/WX    TMP DP  RH WIND       PRES   REMARKS
LK YELLOWSTONE   N/A     37  34  89 NW3       30.24S
W YELLOWSTONE  NOT AVBL

$$
WYZ002>013-054>058-071-098>099-020500-
NORTHERN WYOMING

CITY           SKY/WX    TMP DP  RH WIND       PRES   REMARKS
JACKSON        CLEAR     50  36  57 CALM      30.17R
CODY             N/A    N/A N/A N/A MISG        N/A
GREYBULL       CLEAR     61  45  55 SE5       29.99R
WORLAND        CLEAR     57  42  57 SE9       29.99R
SHERIDAN       CLEAR     48  43  82 MISG      30.01R
BUFFALO        CLEAR     50  42  74 SW7       30.06R
GILLETTE       CLEAR     51  43  74 SW9       30.04R
HULETT         FAIR      50  41  71 MISG      30.03
NEWCASTLE      FAIR      46  41  81 N3        30.06

$$
WYZ014>020-022>026-101>103-020500-
CENTRAL WYOMING

CITY           SKY/WX    TMP DP  RH WIND       PRES   REMARKS
BIG PINEY      CLEAR     45  34  65 NW12      30.22R
PINEDALE       CLEAR     43  34  70 NW5       30.23R
DUBOIS         FAIR      46  30  53 NW9       30.18R
LANDER         CLEAR     61  30  31 SW6       30.07R
RIVERTON       CLEAR     59  27  29 NW10      30.07R
CASPER         CLEAR     53  43  68 E8        30.08R
DOUGLAS        CLEAR     49  45  86 E8        30.10R

$$
WYZ021-027>030-104>119-020500-
SOUTHERN WYOMING

CITY           SKY/WX    TMP DP  RH WIND       PRES   REMARKS
EVANSTON       CLEAR     55  31  39 W6        30.24R
KEMMERER       CLEAR     52  34  50 CALM      30.24R
FORT BRIDGER   FAIR      55  33  43 W6        30.25R
ROCK SPRINGS   CLEAR     57  30  35 E3        30.20R
DIXON          FAIR      50  39  65 NE7       30.22R
RAWLINS        CLEAR     57  27  31 W8        30.18R
SARATOGA       FAIR      46  36  66 S7        30.21R
LARAMIE        CLEAR     50  32  50 CALM      30.21R
CHEYENNE       CLEAR     53  44  71 N6        30.17R
TORRINGTON     CLEAR     54  46  74 CALM      30.08R
PINE BLUFFS    FAIR      50  45  81 N3        30.14R

$$



USA.gov is the U.S. government's official web portal to all federal, state and local government web resources and services.